Regional Weather Roundup
Issued by NWS

Home | Current Version | Previous Version | Graphics & Text | Print | Product List | Glossary On
Versions: 1 2 3 4 5 6 7 8 9 10 11 12 13 14 15 16 17 18 19 20 21 22 23 24 25 26 27 28 29 30 31 32 33 34 35 36 37 38 39 40 41 42 43 44 45 46 47 48 49 50
177
ASUS43 KLMK 241402
RWRKY
KENTUCKY REGIONAL WEATHER ROUNDUP
NATIONAL WEATHER SERVICE LOUISVILLE KY
1000 AM EDT TUE MAY 24 2016

NOTE "FAIR" INDICATES FEW OR NO CLOUDS BELOW 12,000 FEET
WITH NO SIGNIFICANT WEATHER AND/OR OBSTRUCTIONS TO VISIBILITY.

KYZ001>023-026-027-061>063-070>075-241500-
WESTERN AND SOUTH CENTRAL KENTUCKY

CITY           SKY/WX    TMP DP  RH WIND       PRES   REMARKS
PADUCAH        CLOUDY    70  60  70 SE5       30.06R
HENDERSON      CLOUDY    70  54  56 S6        30.07S
OWENSBORO      MOSUNNY   70  55  58 S7        30.10R
HOPKINSVILLE   NOT AVBL
BOWLING GREEN  SUNNY     68  55  63 SE3       30.13R
GLASGOW        NOT AVBL
$$

KYZ024-025-028>034-038-045-046-053-241500-
NORTH CENTRAL KENTUCKY

CITY           SKY/WX    TMP DP  RH WIND       PRES   REMARKS
LOUISVILLE/SDF MOSUNNY   70  53  54 SE3       30.12R
LOUISVILLE/LOU SUNNY     69  53  56 SW3       30.13R
FORT KNOX      MOSUNNY   68  54  60 S2        30.12R
$$

KYZ035>037-039>044-047>052-055>060-089>105-241500-
NORTHEAST KENTUCKY

CITY           SKY/WX    TMP DP  RH WIND       PRES   REMARKS
LEXINGTON      SUNNY     70  53  54 S5        30.14R
COVINGTON      PTSUNNY   70  53  54 S7        30.13R
FRANKFORT      SUNNY     70  53  54 S3        30.12S
$$

KYZ054-064>069-076>088-106>120-241500-
SOUTHEAST KENTUCKY

CITY           SKY/WX    TMP DP  RH WIND       PRES   REMARKS
JACKSON        SUNNY     64  52  64 CALM      30.16S
LONDON         SUNNY     65  53  65 S3        30.16R
SOMERSET       NOT AVBL
MIDDLESBORO    SUNNY     61  54  75 CALM      30.18F
MONTICELLO     SUNNY     68  55  63 NE8       30.17R
$$





USA.gov is the U.S. government's official web portal to all federal, state and local government web resources and services.